EXPRESS-AMU1

Last updated on Nov. 13, 2019, 4:20 a.m. UTC

1 41191U 15082A   19316.84362182  .00000170  00000-0  00000+0 0  9993
2 41191   0.0187 280.3889 0002352 315.6837 155.4478  1.00272325 14367
UTC
Height (km)
Latitude
Longitude
Inclination
Orbital Period
UTC large
Height (km)
Speed (km/s)
/
Latitude / Longitude
Inclination (degrees)
Orbital Period (minutes)
Azimuth
Elevation
Range (km)
Doppler Factor
iOS Compass Heading
iOS Angle

Next 30 passes for location: Hong Kong

Rise time Rise Azimuth (degrees) Set time Set Azimuth (degrees) Duration Max altitude (degrees)

No matching passes for this satellites